Home   Weather   Easter Island   Past weeks

Flag for Chile Past Weather in Easter Island, Chile — Yesterday and Last 2 Weeks

Now
72 °F

Sprinkles. Overcast.


Feels Like: 69 °F
Forecast: 71 / 77 °F
Wind: 15 mph from East

Location: Isla De Pascua

Current Time: Jan 17, 2017 at 2:10:32 am

Latest Report: Jan 17, 2017 at 1:00 am


Visibility: 4 mi

Pressure: 30.01 "Hg

Humidity: 88%

Dew Point: 68 °F

Location of Easter IslandLocation

Past Weather in Easter Island — Graph

°F

Easter Island Temperature Yesterday

Maximum temperature yesterday: 73 °F (at 1:00 pm)
Minimum temperature yesterday: 70 °F (at 2:00 am)
Average temperature yesterday: 72 °F

High & Low Weather Summary for the Past Weeks

 TemperatureHumidityPressure
High81 °F (Jan 2, 3:00 pm)100% (Jan 10, 9:00 am)30.12 "Hg (Jan 10, 9:00 am)
Low66 °F (Jan 2, 3:00 am)62% (Jan 3, 7:00 pm)29.86 "Hg (Jan 12, 6:00 am)
Average74 °F82%30.02 "Hg
* Reported Jan 2 1:00 am — Jan 17 1:00 am, Easter Island, Weather by CustomWeather, © 2017

Note: Actual official high and low records may vary slightly from our data, if they occured in-between our weather recording intervals... More about our weather records

Advertising

Easter Island Weather History for the Previous 24 Hours

Scroll right to see more
 ConditionsComfort  
Time TempWeatherWind HumidityBarometerVisibility
1:00 am
Tue, Jan 17
72 °FSprinkles. Overcast.15 mph88%30.01 "Hg4 mi
12:20 am72 °FOvercast.12 mph94%30.01 "HgN/A
12:00 am70 °FRain showers. Overcast.15 mph100%30.01 "Hg4 mi
11:00 pm
Mon, Jan 16
70 °FRain showers. Overcast.21 mph94%30.01 "Hg2 mi
10:00 pm72 °FSprinkles. Cloudy.21 mph88%29.98 "HgN/A
9:00 pm72 °FPartly sunny.20 mph88%29.98 "HgN/A
8:00 pm72 °FSprinkles. Mostly cloudy.20 mph88%29.95 "Hg4 mi
7:00 pm73 °FPartly sunny.18 mph89%29.95 "HgN/A
6:00 pm73 °FBroken clouds.18 mph89%29.95 "HgN/A
5:00 pm73 °FBroken clouds.22 mph89%29.95 "HgN/A
4:00 pm72 °FLight rain. Mostly cloudy.20 mph94%29.95 "Hg4 mi
3:00 pm72 °FLight rain. More clouds than sun.23 mph88%29.95 "Hg4 mi
2:00 pm72 °FPartly sunny.24 mph88%29.98 "HgN/A
1:00 pm73 °FPartly sunny.24 mph89%29.98 "HgN/A
12:00 pm72 °FPartly sunny.20 mph94%29.98 "HgN/A
11:00 am72 °FBroken clouds.17 mph94%29.98 "HgN/A
10:00 am72 °FThunderstorms. Cloudy.9 mph94%29.95 "Hg2 mi
9:00 am72 °FBroken clouds.3 mph94%29.95 "HgN/A
8:00 am70 °FPartly cloudy.No wind94%29.92 "HgN/A
7:00 am70 °FSprinkles. Partly cloudy.3 mph94%29.92 "HgN/A
6:00 am70 °FPartly cloudy.6 mph94%29.92 "HgN/A
5:00 am72 °FPassing clouds.2 mph94%29.92 "HgN/A
4:00 am72 °FSprinkles. Passing clouds.6 mph88%29.92 "Hg5 mi
3:00 am72 °FPartly cloudy.No wind88%29.95 "HgN/A
2:00 am70 °FPartly cloudy.2 mph94%29.98 "HgN/A
Weather by CustomWeather, © 2017

See weather overviewHow to use our weather pages